This is the latest recevied weather packets stored in our database for station/object KC0AFB. If no packets are shown the sender has not sent any weather packets the latest 1 day(s).
| Time | Temp. | Humidity | Pressure | Rain* | Wind** | Luminosity | Snow |
|---|---|---|---|---|---|---|---|
| 1777987989 | 3.33° C | 63% | 1013.9 hPa | 0 mm | 3.13 m/s, 317° | 151 W/m² | - |
| 1777987684 | 2.78° C | 63% | 1013.6 hPa | 0 mm | 3.58 m/s, 354° | 145 W/m² | - |
| 1777987382 | 2.78° C | 63% | 1013.4 hPa | 0 mm | 3.13 m/s, 326° | 129 W/m² | - |
| 1777987079 | 2.78° C | 63% | 1013.4 hPa | 0 mm | 4.47 m/s, 290° | 113 W/m² | - |
| 1777986776 | 2.78° C | 65% | 1013.6 hPa | 0 mm | 2.68 m/s, 307° | 94 W/m² | - |
| 1777986474 | 2.78° C | 65% | 1013.5 hPa | 0 mm | 3.13 m/s, 326° | 72 W/m² | - |
| 1777986172 | 2.78° C | 66% | 1013.4 hPa | 0 mm | 4.92 m/s, 290° | 57 W/m² | - |
| 1777985869 | 2.78° C | 65% | 1013.2 hPa | 0 mm | 4.47 m/s, 2° | 54 W/m² | - |
| 1777985566 | 2.78° C | 67% | 1013.4 hPa | 0 mm | 2.68 m/s, 289° | 56 W/m² | - |
| 1777985263 | 2.22° C | 66% | 1013.4 hPa | 0 mm | 4.02 m/s, 326° | 44 W/m² | - |
| 1777984960 | 2.22° C | 68% | 1013.3 hPa | 0 mm | 2.24 m/s, 303° | 41 W/m² | - |
| 1777984655 | 2.22° C | 68% | 1013.2 hPa | 0 mm | 3.13 m/s, 306° | 43 W/m² | - |
| 1777984352 | 2.22° C | 69% | 1013.2 hPa | 0 mm | 3.13 m/s, 306° | 42 W/m² | - |
| 1777984048 | 1.67° C | 70% | 1013.1 hPa | 0 mm | 3.58 m/s, 286° | 34 W/m² | - |
| 1777983746 | 1.67° C | 70% | 1013 hPa | 0 mm | 3.13 m/s, 299° | 28 W/m² | - |
| 1777983442 | 1.67° C | 71% | 1013.2 hPa | 0 mm | 2.24 m/s, 278° | 27 W/m² | - |
| 1777983139 | 1.67° C | 72% | 1012.6 hPa | 0 mm | 2.68 m/s, 312° | 24 W/m² | - |
| 1777982835 | 1.67° C | 72% | 1012.6 hPa | 0 mm | 2.24 m/s, 272° | 21 W/m² | - |
| 1777982532 | 1.11° C | 73% | 1012.7 hPa | 0 mm | 1.79 m/s, 279° | 19 W/m² | - |
| 1777982230 | 1.11° C | 73% | 1012.9 hPa | 0 mm | 2.24 m/s, 277° | 16 W/m² | - |
| 1777981928 | 1.11° C | 73% | 1012.9 hPa | 0 mm | 2.24 m/s, 287° | 14 W/m² | - |
| 1777981625 | 1.11° C | 73% | 1012.5 hPa | 0 mm | 2.24 m/s, 298° | 11 W/m² | - |
| 1777981321 | 1.11° C | 73% | 1012.6 hPa | 0 mm | 2.24 m/s, 299° | 9 W/m² | - |
| 1777981018 | 1.11° C | 72% | 1012.6 hPa | 0 mm | 3.13 m/s, 288° | 7 W/m² | - |
| 1777980714 | 1.11° C | 72% | 1012.6 hPa | 0 mm | 1.79 m/s, 284° | 4 W/m² | - |
* Rain latest hour (hover to see other rain measurements)
** Current wind speed in m/s (hover to see current wind gust speed)